TimeEST,TemperatureF,Dew PointF,Humidity,Sea Level PressureIn,VisibilityMPH,Wind Direction,Wind SpeedMPH,Gust SpeedMPH,PrecipitationIn,Events,Conditions,WindDirDegrees,DateUTC
12:15 AM,42.8,42.8,100,30.28,10.0,Calm,Calm,-,0.00,,Clear,0,2013-02-19 05:15:00
12:35 AM,41.0,41.0,100,30.27,10.0,Calm,Calm,-,0.00,,Clear,0,2013-02-19 05:35:00
12:55 AM,41.0,41.0,100,30.27,10.0,Calm,Calm,-,0.00,,Clear,0,2013-02-19 05:55:00
1:15 AM,42.8,42.8,100,30.26,10.0,Calm,Calm,-,0.00,,Clear,0,2013-02-19 06:15:00
1:35 AM,42.8,42.8,100,30.25,10.0,Calm,Calm,-,0.00,,Clear,0,2013-02-19 06:35:00
2:15 AM,42.8,42.8,100,30.23,10.0,Calm,Calm,-,0.00,,Clear,0,2013-02-19 07:15:00
2:35 AM,42.8,42.8,100,30.22,10.0,Calm,Calm,-,0.00,,Clear,0,2013-02-19 07:35:00
2:55 AM,42.8,42.8,100,30.21,10.0,Calm,Calm,-,0.00,,Clear,0,2013-02-19 07:55:00
3:15 AM,42.8,42.8,100,30.20,10.0,Calm,Calm,-,0.00,,Clear,0,2013-02-19 08:15:00
3:35 AM,42.8,42.8,100,30.19,10.0,ENE,3.5,-,0.00,,Clear,60,2013-02-19 08:35:00
3:55 AM,42.8,42.8,100,30.17,10.0,Calm,Calm,-,0.00,,Clear,0,2013-02-19 08:55:00
4:35 AM,44.6,44.6,100,30.17,10.0,Calm,Calm,-,0.00,,Mostly Cloudy,0,2013-02-19 09:35:00
5:15 AM,42.8,42.8,100,30.16,10.0,Calm,Calm,-,0.00,,Clear,0,2013-02-19 10:15:00
5:35 AM,42.8,42.8,100,30.16,10.0,South,3.5,-,0.00,,Partly Cloudy,170,2013-02-19 10:35:00
6:50 AM,55.4,50.0,82,30.14,10.0,South,6.9,-,N/A,,Scattered Clouds,180,2013-02-19 11:50:00
7:50 AM,57.2,51.8,82,30.15,10.0,South,11.5,-,N/A,,Scattered Clouds,180,2013-02-19 12:50:00
8:50 AM,62.6,46.4,55,30.15,10.0,SSW,13.8,23.0,N/A,,Scattered Clouds,210,2013-02-19 13:50:00
9:50 AM,62.6,48.2,59,30.14,10.0,SSW,16.1,23.0,N/A,,Overcast,210,2013-02-19 14:50:00
10:50 AM,62.6,50.0,63,30.13,10.0,SSW,13.8,23.0,N/A,,Mostly Cloudy,200,2013-02-19 15:50:00
11:50 AM,62.6,51.8,68,30.11,10.0,South,9.2,25.3,N/A,,Mostly Cloudy,190,2013-02-19 16:50:00
12:50 PM,60.8,51.8,72,30.08,5.0,SSW,9.2,23.0,N/A,Rain,Light Rain,210,2013-02-19 17:50:00
1:50 PM,59.0,53.6,82,30.04,8.0,SSW,9.2,16.1,N/A,,Mostly Cloudy,200,2013-02-19 18:50:00
2:50 PM,59.0,53.6,82,30.01,5.0,SSW,8.1,13.8,N/A,Rain,Light Rain,200,2013-02-19 19:50:00
3:50 PM,60.8,55.4,82,30.00,9.0,SSW,10.4,16.1,N/A,,Overcast,210,2013-02-19 20:50:00
4:50 PM,60.8,55.4,82,30.02,10.0,West,5.8,-,N/A,,Overcast,270,2013-02-19 21:50:00
5:50 PM,57.2,55.4,94,30.04,3.0,West,6.9,-,N/A,Rain,Light Rain,260,2013-02-19 22:50:00
6:05 PM,57.2,55.4,94,30.04,1.5,West,5.8,-,N/A,,Overcast,260,2013-02-19 23:05:00
8:15 PM,55.4,55.4,100,30.06,10.0,West,5.8,-,0.00,,Scattered Clouds,260,2013-02-20 01:15:00
8:35 PM,55.4,55.4,100,30.07,10.0,West,5.8,-,0.00,,Clear,260,2013-02-20 01:35:00
9:15 PM,53.6,53.6,100,30.08,10.0,WSW,5.8,-,0.00,,Clear,250,2013-02-20 02:15:00
9:35 PM,53.6,53.6,100,30.08,10.0,WSW,3.5,-,0.00,,Clear,240,2013-02-20 02:35:00
9:55 PM,53.6,53.6,100,30.08,7.0,WSW,4.6,-,0.00,,Clear,240,2013-02-20 02:55:00
10:15 PM,53.6,53.6,100,30.09,8.0,SW,5.8,-,0.00,,Clear,230,2013-02-20 03:15:00
10:35 PM,53.6,53.6,100,30.08,8.0,WSW,4.6,-,0.00,,Clear,240,2013-02-20 03:35:00
10:55 PM,51.8,51.8,100,30.07,8.0,SW,4.6,-,0.00,,Clear,230,2013-02-20 03:55:00
11:15 PM,51.8,51.8,100,30.08,5.0,SW,4.6,-,0.00,,Clear,230,2013-02-20 04:15:00
11:35 PM,51.8,51.8,100,30.08,5.0,West,6.9,-,0.00,,Scattered Clouds,260,2013-02-20 04:35:00
11:55 PM,53.6,53.6,100,30.09,10.0,West,6.9,-,0.00,,Partly Cloudy,260,2013-02-20 04:55:00